EW6338 Weather Reports


Display with metric or nautical units.
time (UTC)temp
F
wind
direction
speed
MPH
gust
MPH
rain 1hr
in
rain 24hr
in
rain mn
in
humidity
%
barometer
mb
20260510224603 67 236 0.0 1.0 0.00 0.00 0.00 68 1009.9
20260510223103 68 86 0.0 2.0 0.00 0.00 0.00 64 1009.6
20260510221555 69 325 0.0 5.0 0.00 0.00 0.00 64 1009.3
20260510220055 71 26 1.0 8.0 0.00 0.00 0.00 63 1009.1
20260510214556 70 13 0.0 5.0 0.00 0.00 0.00 65 1009.1
20260510213054 70 141 0.0 6.0 0.00 0.00 0.00 63 1009.3
20260510211600 70 16 0.0 3.0 0.00 0.00 0.00 61 1009.2
20260510210051 70 291 0.0 11.0 0.00 0.00 0.00 58 1008.8
20260510204557 72 245 2.0 9.0 0.00 0.00 0.00 58 1008.6
20260510203049 74 248 3.0 13.0 0.00 0.00 0.00 56 1008.9
20260510201549 74 142 2.0 6.0 0.00 0.00 0.00 56 1008.6
20260510200059 74 307 2.0 11.0 0.00 0.00 0.00 57 1008.9
20260510194600 74 153 1.0 8.0 0.00 0.00 0.00 57 1008.9
20260510193044 73 99 1.0 11.0 0.00 0.00 0.00 61 1009.2
20260510191543 73 197 4.0 9.0 0.00 0.00 0.00 57 1009.2
20260510190047 72 144 2.0 8.0 0.00 0.00 0.00 62 1009.2
20260510184536 72 278 3.0 9.0 0.00 0.00 0.00 60 1009.5
20260510183033 70 139 2.0 6.0 0.00 0.00 0.00 65 1009.7
20260510181533 71 271 1.0 9.0 0.00 0.00 0.00 65 1009.8
20260510180034 71 321 1.0 4.0 0.00 0.00 0.00 66 1010.1
20260510174528 70 98 3.0 9.0 0.00 0.00 0.00 67 1010.2
20260510173028 68 207 1.0 7.0 0.00 0.00 0.00 70 1010.4
20260510171526 68 238 1.0 8.0 0.00 0.00 0.00 67 1010.5
20260510170025 69 70 1.0 10.0 0.00 0.00 0.00 67 1010.5
20260510164524 69 272 0.0 4.0 0.00 0.00 0.00 70 1010.4
20260510163020 68 325 1.0 5.0 0.00 0.00 0.00 68 1010.6
20260510161524 67 139 3.0 8.0 0.00 0.00 0.00 69 1010.8
20260510160028 68 288 2.0 6.0 0.00 0.00 0.00 70 1010.8
20260510154516 66 60 1.0 4.0 0.00 0.00 0.00 73 1010.9
20260510153013 66 243 2.0 7.0 0.00 0.00 0.00 74 1011.1
20260510151522 66 159 0.0 3.0 0.00 0.00 0.00 78 1011.1
20260510150009 64 319 1.0 3.0 0.00 0.00 0.00 78 1011.2
20260510144505 63 198 1.0 4.0 0.00 0.00 0.00 81 1011.2
20260510143004 61 257 0.0 3.0 0.00 0.00 0.00 85 1011.3
20260510141603 59 287 1.0 5.0 0.00 0.00 0.00 86 1011.4
20260510140054 59 268 0.0 4.0 0.00 0.00 0.00 90 1011.4
20260510134559 57 168 0.0 3.0 0.00 0.00 0.00 93 1011.5
20260510133049 56 284 0.0 3.0 0.00 0.00 0.00 93 1011.5
20260510131546 55 334 0.0 3.0 0.00 0.00 0.00 95 1011.5
20260510130045 55 326 0.0 3.0 0.00 0.00 0.00 96 1011.3
20260510124545 55 144 1.0 5.0 0.00 0.00 0.00 97 1011.5
20260510123044 54 302 1.0 5.0 0.00 0.00 0.00 98 1011.2
20260510121542 53 273 0.0 6.0 0.00 0.00 0.00 98 1011.2
20260510120038 53 287 0.0 1.0 0.00 0.00 0.00 99 1011.3
20260510114601 52 100 0.0 3.0 0.00 0.00 0.00 98 1011.4
20260510113050 52 258 0.0 4.0 0.00 0.00 0.00 98 1011.2
20260510111535 51 255 0.0 3.0 0.00 0.00 0.00 99 1010.6
20260510110036 50 125 1.0 4.0 0.00 0.00 0.00 99 1010.8
20260510104527 50 130 0.0 1.0 0.00 0.00 0.00 98 1010.7
20260510103026 49 250 0.0 0.0 0.00 0.00 0.00 98 1011.2
20260510101524 49 128 0.0 1.0 0.00 0.00 0.00 98 1010.9
20260510100031 49 131 0.0 0.0 0.00 0.00 0.00 98 1011.1
20260510094531 48 272 0.0 0.0 0.00 0.00 0.00 98 1010.8
20260510093021 48 273 0.0 0.0 0.00 0.00 0.00 98 1010.6
20260510091521 49 272 0.0 0.0 0.00 0.00 0.00 98 1010.5
20260510090020 49 272 0.0 1.0 0.00 0.00 0.00 98 1010.4
20260510084525 49 131 0.0 0.0 0.00 0.00 0.00 98 1010.4
20260510083019 49 131 0.0 0.0 0.00 0.00 0.00 98 1010.4
20260510081518 49 131 0.0 0.0 0.00 0.00 0.00 98 1010.4
20260510080020 50 131 0.0 1.0 0.00 0.00 0.00 98 1010.3
20260510074517 49 131 0.0 0.0 0.00 0.00 0.00 98 1010.2
20260510073015 49 131 0.0 0.0 0.00 0.00 0.00 98 1010.0
20260510071521 49 131 0.0 0.0 0.00 0.00 0.00 98 1009.8
20260510070013 49 131 0.0 0.0 0.00 0.00 0.00 98 1010.1
20260510064512 49 131 0.0 0.0 0.00 0.00 0.00 98 1010.0
20260510063011 49 131 0.0 0.0 0.00 0.00 0.00 98 1010.2
20260510061511 49 131 0.0 0.0 0.00 0.00 0.00 98 1010.0
20260510060008 49 131 0.0 0.0 0.00 0.00 0.00 97 1010.2
20260510054506 49 131 0.0 0.0 0.00 0.00 0.00 98 1010.3
20260510053003 49 131 0.0 0.0 0.00 0.00 0.00 98 1010.6
20260510051502 48 131 0.0 1.0 0.00 0.00 0.00 98 1010.6
20260510050100 48 131 0.0 0.0 0.00 0.00 0.00 98 1010.7
20260510044611 48 131 0.0 0.0 0.00 0.00 0.00 98 1010.7
20260510043057 47 131 0.0 0.0 0.00 0.00 0.00 97 1010.5
20260510041558 47 131 0.0 0.0 0.00 0.00 0.00 97 1010.4
20260510040050 47 131 0.0 0.0 0.00 0.00 0.00 97 1010.8
20260510034550 47 131 0.0 0.0 0.00 0.00 0.00 97 1010.9
20260510033110 47 131 0.0 0.0 0.00 0.00 0.00 97 1011.0
20260510031549 47 131 0.0 0.0 0.00 0.00 0.00 97 1011.3
20260510030048 47 131 0.0 0.0 0.00 0.00 0.00 97 1011.2
20260510024546 47 131 0.0 0.0 0.00 0.00 0.00 97 1011.4
20260510023044 47 131 0.0 0.0 0.00 0.00 0.00 97 1011.6
20260510021544 47 131 0.0 0.0 0.00 0.00 0.00 97 1011.5
20260510020047 47 131 0.0 0.0 0.00 0.00 0.00 97 1011.7
20260510014544 46 131 0.0 0.0 0.00 0.00 0.00 97 1011.9
20260510013043 46 131 0.0 0.0 0.00 0.00 0.00 97 1011.7
20260510011543 46 131 0.0 1.0 0.00 0.00 0.00 96 1011.5
20260510010052 46 131 0.0 1.0 0.00 0.00 0.00 96 1011.4
20260510004541 46 132 0.0 1.0 0.00 0.00 0.00 96 1011.4
20260510003053 46 132 0.0 1.0 0.00 0.00 0.00 96 1011.7
20260510001545 46 131 0.0 1.0 0.00 0.00 0.00 96 1011.7
20260510000049 46 112 0.0 1.0 0.00 0.00 0.00 96 1011.6
20260509234546 46 112 0.0 0.0 0.00 0.00 0.00 96 1011.8
20260509233038 46 112 0.0 1.0 0.00 0.00 0.00 96 1011.5
20260509231538 46 230 0.0 0.0 0.00 0.00 0.00 96 1011.3
20260509230037 46 229 0.0 0.0 0.00 0.00 0.00 95 1011.3